Regional Weather Roundup
Issued by NWS

Home | Current Version | Previous Version | Graphics & Text | Print | Product List | Glossary On
Versions: 1 2 3 4 5 6 7 8 9 10 11 12 13 14 15 16 17 18 19 20 21 22 23 24 25 26 27 28 29 30 31 32 33 34 35 36 37 38 39 40 41 42 43 44 45 46 47 48 49 50
000
ASUS45 KPSR 010900
RWRAZ

ARIZONA HOURLY REGIONAL WEATHER ROUNDUP
NATIONAL WEATHER SERVICE PHOENIX AZ
200 AM MST WED JUL 01 2015

NOTE: FAIR INDICATES FEW OR NO CLOUDS BELOW 12,000 FEET WITH NO
SIGNIFICANT WEATHER AND/OR OBSTRUCTIONS TO VISIBILITY.

AZZ001>003-036-011000-
NORTHWEST ARIZONA

CITY           SKY/WX    TMP DP  RH WIND       PRES   REMARKS
KINGMAN        MOCLDY    84  55  36 SW23G30   29.98R
$$

AZZ004>008-015-016-018-011000-
NORTH CENTRAL ARIZONA

CITY           SKY/WX    TMP DP  RH WIND       PRES   REMARKS
GRAND CANYON   CLEAR     56  53  90 CALM      30.22S
WILLIAMS       PTCLDY    61  54  77 S5        30.28F
PRESCOTT       LGT RAIN  76  59  55 SE6       30.12R
FLAGSTAFF      NOT AVBL
PAYSON         MOCLDY    70  63  78 N3        30.17S
PAGE           PTCLDY    85  43  22 CALM      29.98S
$$

AZZ009>014-017-011000-
NORTHEAST ARIZONA

CITY           SKY/WX    TMP DP  RH WIND       PRES   REMARKS
WINSLOW        NOT AVBL
SAINT JOHNS    CLEAR     66  55  67 S6        30.14F
WINDOW ROCK    PTCLDY    60  49  66 CALM      30.23R
SHOW LOW       CLEAR     59  52  77 S10       30.23S
$$

AZZ023-011000-
GREATER PHOENIX AREA

CITY           SKY/WX    TMP DP  RH WIND       PRES   REMARKS
PHOENIX        MOCLDY    92  61  35 NW8       29.86R
LUKE AFB       MOCLDY    90  64  43 S12       29.84R
DEER VALLEY    MOCLDY    88  62  41 SW8       29.89R
SCOTTSDALE     PTCLDY    91  61  36 SW6       29.91R
$$

AZZ027-028-011000-
SOUTHWEST MARICOPA COUNTY AND PINAL COUNTY

CITY           SKY/WX    TMP DP  RH WIND       PRES   REMARKS
CASA GRANDE    PTCLDY    81  66  61 S12       29.90S
GILA BEND      FAIR      83  68  59 SW7       29.85R
$$

AZZ503-504-507>509-011000-
SOUTHEAST ARIZONA

CITY           SKY/WX    TMP DP  RH WIND       PRES   REMARKS
TUCSON         MOCLDY    73  64  73 SE15      30.02F
DAVIS-MONTHAN  CLOUDY    72  65  77 SE12      30.01F
NOGALES        CLOUDY    68  64  87 CALM      30.08F
SIERRA VISTA   CLOUDY    67  63  88 W5        30.13F
SAFFORD        MOCLDY    81  61  50 E7        29.98R
$$

AZZ020-021-025-026-031-011000-
SOUTHWEST ARIZONA

CITY           SKY/WX    TMP DP  RH WIND       PRES   REMARKS
YUMA           NOT AVBL
$$

CAZ031-033-041-043-047-048-061-011000-
SOUTHERN CALIFORNIA

CITY           SKY/WX    TMP DP  RH WIND       PRES   REMARKS
DOWNTOWN L.A.  CLEAR     68  62  81 CALM      29.85S
L.A. AIRPORT   PTCLDY    66  64  93 VRB3      29.86S
SAN DIEGO      MOCLDY    69  65  86 S5        29.90R
BURBANK        CLEAR     75  59  57 SE5       29.86S
ONTARIO        PTCLDY    74  56  53 W7        29.87S
RIVERSIDE      CLEAR     76  55  48 CALM      29.87S
PALM SPRINGS   LGT RAIN  92  59  33 S7        29.83R
EL CENTRO NAS  CLOUDY    89  64  43 SE15      29.80R
IMPERIAL       CLOUDY    90  64  42 SE23      29.78R
BLYTHE         CLOUDY    90  62  39 S22       29.84R
$$

NVZ020-UTZ003-011000-
SOUTHERN NEVADA-UTAH

CITY           SKY/WX    TMP DP  RH WIND       PRES   REMARKS
LAS VEGAS      NOT AVBL
SALT LAKE CITY MOCLDY    79  55  43 S9        30.06F
$$

NMZ009-TXZ055-011000-
NEW MEXICO-WEST TEXAS

CITY           SKY/WX    TMP DP  RH WIND       PRES   REMARKS
ALBUQUERQUE    CLEAR     74  43  32 SE7       30.18R
EL PASO        PTCLDY    77  50  38 N5        30.08S
$$


........................KEY........................
SKY/WX - SKY CONDITION/WEATHER
TMP    - TEMPERATURE IN FAHRENHEIT
DP     - DEW POINT IN FAHRENHEIT
RH     - RELATIVE HUMIDITY IN PERCENT
WIND   - DIRECTION AND SPEED IN MILES PER HOUR (MPH)
VRB    - VARIABLE WIND DIRECTION
PRES   - MEAN SEA LEVEL PRESSURE IN INCHES OF MERCURY
         F - FALLING PRESSURE   R - RISING PRESSURE
         S - STEADY PRESSURE
VSB    - VISIBILITY IN MILES
HX     - HEAT INDEX IN FAHRENHEIT
WCI    - WIND CHILL INDEX IN FAHRENHEIT
TC     - TEMPERATURE IN CELSIUS WHICH IS ALSO KNOWN AS
         TEMPERATURE IN CENTIGRADE
AFB    - AIR FORCE BASE
         LUKE AFB IS LUKE AIR FORCE BASE
         DAVIS-MONTHAN IS DAVIS-MONTHAN AIR FORCE BASE
NAS    - NAVAL AIR STATION
         EL CENTRO NAS IS EL CENTRO NAVAL AIR STATION
N/A    - NOT AVAILABLE



USA.gov is the U.S. government's official web portal to all federal, state and local government web resources and services.